Weather reports worldwide

Advertisment
Chivenor, United Kingdom (3707): temperature & dewpoint: 07.12.2018 23:00:00 - 13.12.2018 23:00:00 (GMT)Chivenor, United Kingdom (3707): temperature -20cm & temperature -100cm: 07.12.2018 23:00:00 - 13.12.2018 23:00:00 (GMT)Chivenor, United Kingdom (3707): wind speed & gusts: 07.12.2018 23:00:00 - 13.12.2018 23:00:00 (GMT)Chivenor, United Kingdom (3707): wind direction: 07.12.2018 23:00:00 - 13.12.2018 23:00:00 (GMT)Chivenor, United Kingdom (3707): reduced air pressure: 07.12.2018 23:00:00 - 13.12.2018 23:00:00 (GMT)Chivenor, United Kingdom (3707): visibility: 07.12.2018 23:00:00 - 13.12.2018 23:00:00 (GMT)Chivenor, United Kingdom (3707): precipitation: 07.12.2018 23:00:00 - 13.12.2018 23:00:00 (GMT)
Date & Time tt [°C] td [°C] tt -20cm [°C] tt -100cm [°C] ff [km/h] ff [kn] fx [km/h] fx [kn] dd ppp [hPa] vv [km] rr [mm]
13.12.2018 23:00:00 2,7 -1,3 - - - - - - - 1017,5 45 0,0
13.12.2018 22:00:00 3,6 -0,7 - - - - - - - 1017,3 35 0,0
13.12.2018 21:00:00 4,3 -0,3 - - - - - - - 1016,7 40 0,0
13.12.2018 20:00:00 4,7 -0,1 - - - - - - - 1016,2 35 0,0
13.12.2018 19:00:00 5,0 0,1 - - - - - - - 1015,7 45 0,0
13.12.2018 18:00:00 5,6 0,2 - - - - - - - 1015,0 28 0,0
13.12.2018 17:00:00 6,1 0,3 - - - - - - - 1013,5 30 0,0
13.12.2018 16:00:00 6,4 1,1 - - - - - - - 1012,7 20 0,0
13.12.2018 15:00:00 6,8 1,2 - - - - - - - 1011,5 15 0,0
13.12.2018 14:00:00 7,0 1,4 - - - - - - - 1011,2 13 0,0
13.12.2018 13:00:00 7,1 1,7 - - - - - - - 1010,7 15 0,0
13.12.2018 12:00:00 7,2 1,7 - - - - - - - 1010,5 20 0,0
13.12.2018 11:00:00 7,0 1,7 - - - - - - - 1010,3 14 0,0
13.12.2018 10:00:00 6,9 1,9 - - - - - - - 1010,0 13 0,0
13.12.2018 09:00:00 6,8 1,2 9,0 10,9 - - - - - 1009,3 22 0,0
13.12.2018 08:00:00 6,7 0,6 - - - - - - - 1008,8 23 0,0
13.12.2018 07:00:00 6,5 0,6 - - - - - - - 1008,6 22 0,0
13.12.2018 06:00:00 6,5 0,3 - - - - - - - 1008,4 35 0,0
13.12.2018 05:00:00 6,5 0,6 - - - - - - - 1008,7 45 0,0
13.12.2018 04:00:00 6,6 0,4 - - - - - - - 1008,7 27 0,0
13.12.2018 03:00:00 6,6 0,7 - - - - - - - 1009,2 30 0,0
13.12.2018 02:00:00 6,6 1,2 - - - - - - - 1009,5 40 0,0
13.12.2018 01:00:00 6,7 1,3 - - - - - - - 1009,9 30 0,0
13.12.2018 00:00:00 7,0 1,7 - - - - - - - 1010,9 30 0,0
12.12.2018 23:00:00 7,2 2,8 - - - - - - - 1010,8 26 0,0
12.12.2018 22:00:00 7,8 3,6 - - - - - - - 1012,0 26 0,0
12.12.2018 21:00:00 8,0 3,9 - - - - - - - 1012,6 30 0,0
12.12.2018 20:00:00 8,2 4,0 - - - - - - - 1013,0 35 0,0
12.12.2018 19:00:00 8,1 4,3 - - - - - - - 1013,4 30 0,0
12.12.2018 18:00:00 8,0 4,3 - - - - - - - 1014,0 35 0,0
12.12.2018 17:00:00 7,9 4,6 - - - - - - - 1014,5 29 0,0
12.12.2018 16:00:00 7,6 5,1 - - - - - - - 1015,3 12 0,0
12.12.2018 15:00:00 8,0 5,8 - - - - - - - 1015,3 10 0,0
12.12.2018 14:00:00 8,5 6,5 - - - - - - - 1015,9 17 0,0
12.12.2018 13:00:00 8,9 7,0 - - - - - - - 1016,4 20 0,0
12.12.2018 12:00:00 9,4 8,4 - - - - - - - 1016,9 4,4 0,6
12.12.2018 11:00:00 10,1 8,6 - - - - - - - 1017,5 27 0,0
12.12.2018 10:00:00 9,7 8,6 - - - - - - - 1017,6 25 0,0
12.12.2018 09:00:00 9,2 8,3 9,7 10,9 - - - - - 1017,6 19 0,0
12.12.2018 08:00:00 9,2 8,3 - - - - - - - 1017,5 7 0,0
12.12.2018 07:00:00 9,3 8,4 - - - - - - - 1017,4 7 0,0
12.12.2018 06:00:00 9,1 8,2 - - - - - - - 1017,6 8 0,0
12.12.2018 05:00:00 8,9 7,9 - - - - - - - 1017,8 4,5 0,0
12.12.2018 04:00:00 8,6 7,3 - - - - - - - 1017,8 14 0,2
12.12.2018 03:00:00 8,6 7,2 - - - - - - - 1017,7 14 0,8
12.12.2018 02:00:00 8,7 7,0 - - - - - - - 1017,6 12 0,6
12.12.2018 01:00:00 9,1 6,8 - - - - - - - 1018,0 19 0,2
12.12.2018 00:00:00 9,4 6,5 - - - - - - - 1018,2 26 0,0
11.12.2018 23:00:00 9,5 6,2 - - - - - - - 1018,0 27 0,0
11.12.2018 22:00:00 9,3 6,2 - - - - - - - 1018,1 30 0,0
11.12.2018 21:00:00 9,1 6,1 - - - - - - - 1018,6 27 0,0
11.12.2018 20:00:00 8,8 5,9 - - - - - - - 1018,9 30 0,0
11.12.2018 19:00:00 9,0 5,8 - - - - - - - 1018,7 29 0,0
11.12.2018 18:00:00 9,2 5,6 - - - - - - - 1019,2 27 0,0
11.12.2018 17:00:00 9,4 5,5 - - - - - - - 1019,6 30 0,0
11.12.2018 16:00:00 9,6 5,7 - - - - - - - 1019,7 30 0,0
11.12.2018 15:00:00 10,2 6,5 - - - - - - - 1019,7 26 -
11.12.2018 14:00:00 10,5 6,2 - - - - - - - 1020,5 23 0,0
11.12.2018 13:00:00 10,8 6,4 - - - - - - - 1021,3 28 0,0
11.12.2018 12:00:00 10,2 7,6 - - - - - - - 1021,8 21 0,0
11.12.2018 11:00:00 9,6 7,9 - - - - - - - 1022,7 35 0,0
11.12.2018 10:00:00 9,1 7,7 - - - - - - - 1023,1 16 0,0
11.12.2018 09:00:00 8,3 7,4 9,7 11,0 - - - - - 1023,3 12 0,0
11.12.2018 08:00:00 8,0 6,7 - - - - - - - 1023,7 22 0,0
11.12.2018 07:00:00 7,8 6,5 - - - - - - - 1023,8 17 0,0
11.12.2018 06:00:00 7,7 6,3 - - - - - - - 1024,0 30 0,0
11.12.2018 05:00:00 7,4 6,0 - - - - - - - 1024,6 15 0,0
11.12.2018 04:00:00 7,4 6,1 - - - - - - - 1025,0 17 0,0
11.12.2018 03:00:00 7,4 6,3 - - - - - - - 1025,7 15 0,0
11.12.2018 02:00:00 7,0 5,9 - - - - - - - 1026,1 14 0,0
11.12.2018 01:00:00 7,2 6,1 - - - - - - - 1026,9 15 0,0
11.12.2018 00:00:00 7,1 6,0 - - - - - - - 1027,7 14 0,0
10.12.2018 23:00:00 7,7 6,1 - - - - - - - 1027,7 17 0,0
10.12.2018 22:00:00 8,2 6,5 - - - - - - - 1027,8 13 0,0
10.12.2018 21:00:00 8,4 6,5 - - - - - - - 1028,1 16 0,0
10.12.2018 20:00:00 8,2 6,7 - - - - - - - 1028,3 14 0,0
10.12.2018 19:00:00 8,1 6,0 - - - - - - - 1028,2 0,5 0,0
10.12.2018 18:00:00 9,0 6,9 - - - - - - - 1028,3 13 0,0
10.12.2018 17:00:00 8,9 6,6 - - - - - - - 1028,6 12 0,0
10.12.2018 16:00:00 9,9 7,2 - - - - - - - 1028,8 8 0,0
10.12.2018 15:00:00 10,6 6,8 - - - - - - - 1028,9 23 0,0
10.12.2018 14:00:00 10,2 6,3 - - - - - - - 1029,0 27 0,0
10.12.2018 13:00:00 11,0 6,0 - - - - - - - 1029,3 20 0,0
10.12.2018 12:00:00 10,9 5,5 - - - - - - - 1029,7 23 0,0
10.12.2018 11:00:00 9,7 5,6 - - - - - - - 1030,1 24 0,0
10.12.2018 10:00:00 10,4 7,0 - - - - - - - 1029,8 17 0,0
10.12.2018 09:00:00 7,5 4,8 9,7 11,0 - - - - - 1029,8 18 0,0
10.12.2018 08:00:00 7,6 4,4 - - - - - - - 1029,3 25 0,0
10.12.2018 07:00:00 8,6 5,0 - - - - - - - 1029,0 22 0,0
10.12.2018 06:00:00 8,4 4,4 - - - - - - - 1028,7 30 0,0
10.12.2018 05:00:00 8,4 4,5 - - - - - - - 1028,5 19 0,0
10.12.2018 04:00:00 9,0 5,0 - - - - - - - 1028,2 18 0,0
10.12.2018 03:00:00 9,4 5,1 - - - - - - - 1027,9 23 0,0
10.12.2018 02:00:00 9,2 4,5 - - - - - - - 1027,5 25 0,0
10.12.2018 01:00:00 9,6 5,0 - - - - - - - 1027,1 24 0,0
10.12.2018 00:00:00 9,6 4,3 - - - - - - - 1026,6 22 0,0
09.12.2018 23:00:00 9,9 4,5 - - - - - - - 1026,2 20 0,0
09.12.2018 22:00:00 9,7 4,0 - - - - - - - 1025,8 17 0,0
09.12.2018 21:00:00 10,1 5,1 - - - - - - - 1025,1 16 0,0
09.12.2018 20:00:00 10,0 5,3 - - - - - - - 1024,7 16 0,0
09.12.2018 19:00:00 10,5 5,8 - - - - - - - 1023,6 21 0,0
09.12.2018 18:00:00 10,2 5,5 - - - - - - - 1022,5 28 0,0
09.12.2018 17:00:00 10,3 6,0 - - - - - - - 1021,9 25 0,0
09.12.2018 16:00:00 10,2 5,8 - - - - - - - 1020,7 24 0,0
09.12.2018 15:00:00 10,5 5,7 - - - - - - - 1019,5 20 0,0
09.12.2018 14:00:00 11,4 7,0 - - - - - - - 1018,6 25 0,0
09.12.2018 13:00:00 10,8 6,1 - - - - - - - 1017,5 27 0,0
09.12.2018 12:00:00 11,0 6,2 - - - - - - - 1016,0 28 0,0
09.12.2018 11:00:00 10,7 6,4 - - - - - - - 1014,5 21 0,0
09.12.2018 10:00:00 10,8 6,3 - - - - - - - 1012,5 25 0,0
09.12.2018 09:00:00 10,7 7,3 10,0 11,0 - - - - - 1010,9 14 0,0
09.12.2018 08:00:00 11,2 7,2 - - - - - - - 1008,8 11 0,0
09.12.2018 07:00:00 11,2 7,1 - - - - - - - 1007,6 11 0,0
09.12.2018 06:00:00 10,8 7,4 - - - - - - - 1006,5 10 1,0
09.12.2018 05:00:00 10,5 7,5 - - - - - - - 1005,6 7 0,2
09.12.2018 04:00:00 11,3 6,7 - - - - - - - 1005,2 9 0,0
09.12.2018 03:00:00 11,1 6,8 - - - - - - - 1004,9 9 0,0
09.12.2018 02:00:00 10,8 7,0 - - - - - - - 1004,4 9 0,0
09.12.2018 01:00:00 10,9 6,5 - - - - - - - 1004,4 9 0,0
09.12.2018 00:00:00 10,6 6,9 - - - - - - - 1004,1 8 0,0
08.12.2018 23:00:00 10,4 7,2 - - - - - - - 1004,0 8 0,4
08.12.2018 22:00:00 10,3 6,9 - - - - - - - 1003,9 9 0,6
08.12.2018 21:00:00 7,7 5,2 - - - - - - - 1003,6 3,0 0,2
08.12.2018 20:00:00 10,6 6,2 - - - - - - - 1003,5 10 0,0
08.12.2018 19:00:00 11,2 7,1 - - - - - - - 1003,2 10 0,0
08.12.2018 18:00:00 11,1 6,9 - - - - - - - 1003,3 13 0,0
08.12.2018 17:00:00 11,3 8,0 - - - - - - - 1003,0 6 0,2
08.12.2018 16:00:00 11,6 8,9 - - - - - - - 1002,5 4,6 0,0
08.12.2018 15:00:00 11,9 8,8 - - - - - - - 1003,2 7 0,4
08.12.2018 14:00:00 12,0 10,2 - - - - - - - 1003,9 3,1 0,2
08.12.2018 13:00:00 12,3 11,0 - - - - - - - 1004,5 8 0,6
08.12.2018 12:00:00 11,8 11,0 - - - - - - - 1005,5 9 0,6
08.12.2018 11:00:00 11,4 10,2 - - - - - - - 1006,5 15 0,2
08.12.2018 10:00:00 10,7 9,9 - - - - - - - 1008,0 3,9 0,2
08.12.2018 09:00:00 9,9 9,1 10,0 11,2 - - - - - 1009,1 1,9 0,2
08.12.2018 08:00:00 9,9 8,5 - - - - - - - 1009,8 3,1 0,2
08.12.2018 07:00:00 10,3 7,2 - - - - - - - 1009,7 9 0,0
08.12.2018 06:00:00 10,5 6,8 - - - - - - - 1009,6 10 0,4
08.12.2018 05:00:00 10,1 7,6 - - - - - - - 1009,6 3,6 0,4
08.12.2018 04:00:00 10,7 6,6 - - - - - - - 1009,4 10 0,0
08.12.2018 03:00:00 9,8 7,3 - - - - - - - 1009,4 9 0,0
08.12.2018 02:00:00 10,5 5,8 - - - - 70 38 - 1009,1 12 0,0
08.12.2018 01:00:00 10,6 5,0 - - 0 0 78 42 N 1008,7 15 0,0
08.12.2018 00:00:00 9,8 6,1 - - 46 25 74 40 W 1008,5 13 0,0
07.12.2018 23:00:00 9,3 6,4 - - 44 24 72 39 W 1008,4 11 0,2

tt = temperature
td = dewpoint
tt -20cm = temperature -20cm
tt -100cm = temperature -100cm
ff = wind speed
fx = gusts
dd = wind direction
ppp = reduced air pressure
vv = visibility
rr = precipitation

Next stations